Regional Weather Roundup
Issued by NWS

Home | Current Version | Previous Version | Text Only | Print | Product List | Glossary Off
Versions: 1 2 3 4 5 6 7 8 9 10 11 12 13 14 15 16 17 18 19 20 21 22 23 24 25 26 27 28 29 30 31 32 33 34 35 36 37 38 39 40 41 42 43 44 45 46 47 48 49 50

000
ASUS43 KMKX 290221
RWRWI

WISCONSIN REGIONAL WEATHER ROUNDUP
NATIONAL WEATHER SERVICE MILWAUKEE/SULLIVAN WI
900 PM CDT MON JUL 28 2014

NOTE: "FAIR" INDICATES FEW OR NO CLOUDS BELOW 12,000 FEET WITH NO
SIGNIFICANT WEATHER AND/OR OBSTRUCTIONS TO VISIBILITY.

WIZ001-002-006>008-014>016-023>028-290300-
NORTHWEST WISCONSIN

CITY           SKY/WX    TMP DP  RH WIND       PRES   REMARKS
SUPERIOR ARPT  CLOUDY    68  56  66 W6        30.09R
ASHLAND        MOCLDY    63  56  78 W6        30.07S
HAYWARD        CLOUDY    63  57  81 CALM      30.10S
SIREN          CLEAR     63  56  76 CALM      30.12R
RICE LAKE      CLEAR     62  55  79 CALM      30.13S
LADYSMITH      MOCLDY    64  56  75 W5        30.12S
EAU CLAIRE     CLEAR     66  54  65 W3        30.10S
MENOMONIE      CLEAR     65  54  67 W5        30.11S
NEW RICHMOND   CLEAR     63  55  73 W5        30.13S
OSCEOLA        CLEAR     65  55  70 W3        30.15S
$$

WIZ003>005-009-010-017-018-290300-
NORTH CENTRAL WISCONSIN

CITY           SKY/WX    TMP DP  RH WIND       PRES   REMARKS
WOODRUFF       RAIN      62  53  71 NW5       30.09R
RHINELANDER    LGT RAIN  60  57  89 CALM      30.09S
EAGLE RIVER    CLOUDY    58  57  97 CALM      30.07S
LAND O LAKES   CLOUDY    59  56  92 W3        30.08S
PHILLIPS       CLOUDY    64  57  78 CALM      30.09S
TOMAHAWK       MOCLDY    58  54  88 CALM      30.09S
MEDFORD        PTCLDY    59  55  86 CALM      30.10S
MERRILL        CLEAR     60  55  84 W3        30.08S
$$

WIZ029-030-035-036-043>047-290300-
CENTRAL WISCONSIN

CITY           SKY/WX    TMP DP  RH WIND       PRES   REMARKS
WAUSAU         CLEAR     62  57  83 W6        30.07R
MOSINEE        CLOUDY    64  55  72 NW5       30.10S
MARSHFIELD     CLOUDY    65  55  70 W3        30.09S
STEVENS POINT  CLOUDY    65  53  66 W5        30.09R
WAUPACA        MOCLDY    67  52  58 W5        30.06S
WAUTOMA        CLOUDY    69  54  58 NW6       30.08R
WISC RAPIDS    CLOUDY    66  56  70 W5        30.09F
CAMP DOUGLAS   MOCLDY    59  57  94 W7        30.09S
$$

WIZ011>013-019>022-031-037>040-048>050-290300-
NORTHEAST WISCONSIN

CITY           SKY/WX    TMP DP  RH WIND       PRES   REMARKS
ANTIGO         CLEAR     59  54  82 NW6       30.08S
STURGEON BAY   CLOUDY    57  48  72 S6        30.03S
GREEN BAY      CLOUDY    64  56  75 W5        30.04S
MANITOWOC      MOCLDY    57  51  80 CALM      30.05S
APPLETON       MOCLDY    64  54  68 VRB3      30.06S
CLINTONVILLE   CLOUDY    64  54  68 W5        30.05S
OSHKOSH        PTCLDY    67  52  58 NW5       30.05S
$$

WIZ032>034-041-042-053>061-290300-
SOUTHWEST WISCONSIN

CITY           SKY/WX    TMP DP  RH WIND       PRES   REMARKS
LA CROSSE      CLEAR     68  54  60 NW6       30.10S
SPARTA         CLEAR     59  54  81 CALM      30.11S
VIROQUA        FAIR      61  53  75 W3        30.13R
BOSCOBEL       CLEAR     62  56  80 CALM      30.11R
PRAIRIE DU CHI CLEAR     64  53  67 CALM      30.11S
PLATTEVILLE    FAIR      63  53  69 NW5       30.12S
$$

WIZ056-057-062-063-064-067-068-290300-
SOUTH CENTRAL WISCONSIN

CITY           SKY/WX    TMP DP  RH WIND       PRES   REMARKS
BARABOO/DELLS  MOCLDY    63  51  64 W3        30.09S
LONE ROCK      CLEAR     67  53  61 W5        30.10R
WATERTOWN      CLOUDY    67  55  63 W3        30.06R
MADISON        PTCLDY    66  52  60 W5        30.08R
MIDDLETON      FAIR      63  52  66 W8        30.09R
MONROE         CLEAR     63  52  67 W8        30.09S
JANESVILLE     PTCLDY    63  52  67 W6        30.08R
$$

WIZ051-052-058>065-066-070>072-290300-
SOUTHEAST WISCONSIN

CITY           SKY/WX    TMP DP  RH WIND       PRES   REMARKS
MILWAUKEE      MOCLDY    61  49  64 S5        30.06S
WAUKESHA       MOCLDY    66  52  59 NW7       30.06S
MILWAUKEE/TIMM NOT AVBL
RACINE         MOCLDY    60  49  66 S3        30.07S
BURLINGTON     PTCLDY    61  53  73 W3        30.06S
KENOSHA        MOCLDY    60  50  69 S5        30.06S
FOND DU LAC    CLOUDY    67  52  58 NW5       30.06R
SHEBOYGAN      PTCLDY    57  52  83 CALM      30.05S
WEST BEND      CLOUDY    61  54  77 CALM      30.05S
JUNEAU         CLOUDY    66  50  56 NW5       30.07S
$$

LSZ147-162-290300-
LAKE SUPERIOR

STATION/POSITION TIME  TEMP    WIND        PRES    WAVE
                       AIR SEA DIR/SP/G            HT/PER
                 (UTC) (F)     (DEG/KT/KT) (MB)    (FT/S)
W MID LAKE BUOY  0150   51 44  280/  6/  6 1017.6R   0
PORT WING        0100   68     260/  9/ 12 1017.9F
SAXON HARBOR     0100           90/  4/ 13 1017.9S
$$

LMZ867-665-643>646-290300-
LAKE MICHIGAN

STATION/POSITION TIME  TEMP    WIND        PRES    WAVE
                       AIR SEA DIR/SP/G            HT/PER
                 (UTC) (F)     (DEG/KT/KT) (MB)    (FT/S)
N MID LAKE BUOY  0150   56 54  220/  6/  6 1015.8R   1/ 3
NORTHPORT PIER   0100   63     240/  2/  5 1015.9F
SISTER BAY       0110   64     250/  7/  8   N/A
ALGOMA LAKESHORE 0136             CALM       N/A
KEWAUNEE LAKESHO 0100   54     170/  4/  5 1017.7F
SHEBOYGAN LAKESH 0200   60     190/  8/  8 1017.8F
PORT WASHINGTON  0100   61     180/  2/  4 1018.3
ATWATER BUOY     0200   61     150/  4     1018.6R
MILWAUKEE LAKESH 0200   61     150/  5/  5   N/A
S MID LAKE BUOY  0150   60 60   40/  6/  6 1017.7S   3/ 5
KENOSHA   LAKESH 0200   61     200/  3/  6 1017.9R
$$

TC  - TEMPERATURE IN CELSIUS
VSB - VISIBILITY IN STATUTE MILES
WCI - WIND CHILL INDEX
HX  - HEAT INDEX




USA.gov is the U.S. government's official web portal to all federal, state and local government web resources and services.